Location: Albany
(35.0000°S, 118.0000°E)
Time: 08:06:59
(UTC-04:00)

Tiangong - Pass Details

Date: 03 October 2021
Orbit: 382 x 385 km, 41.5° (Epoch: 16 October)

Event Time Altitude Azimuth Distance (km) Brightness Sun altitude
Rises 08:01:43 0° 259° (W) 2,283 6.4 -22.4°
Reaches altitude 10° 08:04:18 10° 280° (W) 1,422 4.7 -22.9°
Enters shadow 08:06:03 16° 313° (NW) 1,099 3.6 -23.2°
